| time (UTC) | temp C | wind direction | speed KPH | gust KPH | rain 1hr cm | rain 24hr cm | rain mn cm | humidity % | barometer mb |
| 20260503203204 | 16 | 260 | 8.0 | 19.3 | 0.00 | 0.00 | 0.00 | 74 | 1014.7 |
| 20260503200704 | 16 | 254 | 8.0 | 16.1 | 0.00 | 0.00 | 0.00 | 72 | 1014.5 |
| 20260503200204 | 16 | 261 | 11.3 | 19.3 | 0.00 | 0.00 | 0.00 | 72 | 1014.4 |
| 20260503193704 | 16 | 262 | 8.0 | 12.9 | 0.00 | 0.00 | 0.00 | 69 | 1014.0 |
| 20260503190704 | 17 | 254 | 6.4 | 14.5 | 0.00 | 0.00 | 0.00 | 65 | 1013.9 |
| 20260503190203 | 17 | 256 | 12.9 | 25.7 | 0.00 | 0.00 | 0.00 | 65 | 1013.8 |
| 20260503183704 | 18 | 270 | 9.7 | 19.3 | 0.00 | 0.00 | 0.00 | 61 | 1013.7 |
| 20260503180204 | 20 | 250 | 11.3 | 33.8 | 0.00 | 0.00 | 0.00 | 57 | 1013.5 |
| 20260503170204 | 21 | 266 | 11.3 | 32.2 | 0.00 | 0.00 | 0.00 | 50 | 1013.5 |
| 20260503160204 | 21 | 250 | 14.5 | 32.2 | 0.00 | 0.00 | 0.00 | 49 | 1013.4 |
| 20260503150704 | 22 | 266 | 14.5 | 27.4 | 0.00 | 0.00 | 0.00 | 45 | 1013.5 |
| 20260503150204 | 22 | 266 | 12.9 | 29.0 | 0.00 | 0.00 | 0.00 | 46 | 1013.6 |
| 20260503140204 | 22 | 255 | 9.7 | 29.0 | 0.00 | 0.00 | 0.00 | 48 | 1014.1 |
| 20260503130703 | 21 | 251 | 6.4 | 25.7 | 0.00 | 0.00 | 0.00 | 53 | 1014.3 |
| 20260503130203 | 21 | 269 | 8.0 | 27.4 | 0.00 | 0.00 | 0.00 | 53 | 1014.5 |
| 20260503120202 | 21 | 281 | 6.4 | 19.3 | 0.00 | 0.00 | 0.00 | 53 | 1014.9 |
| 20260503110203 | 21 | 218 | 1.6 | 16.1 | 0.00 | 0.00 | 0.00 | 54 | 1015.5 |
| 20260503090203 | 18 | 265 | 1.6 | 12.9 | 0.00 | 0.00 | 0.00 | 74 | 1015.6 |
| 20260503080202 | 17 | 215 | 0.0 | 8.0 | 0.00 | 0.00 | 0.00 | 80 | 1015.6 |
| 20260503070703 | 15 | 252 | 0.0 | 0.0 | 0.00 | 0.00 | 0.00 | 90 | 1015.4 |
| 20260503060203 | 15 | 261 | 0.0 | 4.8 | 0.00 | 0.00 | 0.00 | 90 | 1015.2 |
| 20260503053702 | 15 | 260 | 1.6 | 4.8 | 0.00 | 0.00 | 0.00 | 90 | 1015.0 |
| 20260503050203 | 15 | 261 | 0.0 | 4.8 | 0.00 | 0.00 | 0.00 | 89 | 1014.9 |
| 20260503043702 | 15 | 260 | 1.6 | 4.8 | 0.00 | 0.00 | 0.00 | 89 | 1014.8 |
| 20260503043203 | 15 | 260 | 0.0 | 4.8 | 0.00 | 0.00 | 0.00 | 89 | 1014.9 |
| 20260503040703 | 15 | 260 | 0.0 | 3.2 | 0.00 | 0.00 | 0.00 | 89 | 1015.0 |
| 20260503040202 | 15 | 260 | 1.6 | 4.8 | 0.00 | 0.00 | 0.00 | 88 | 1015.0 |
| 20260503033702 | 15 | 260 | 0.0 | 0.0 | 0.00 | 0.00 | 0.00 | 88 | 1015.1 |
| 20260503033202 | 15 | 260 | 0.0 | 1.6 | 0.00 | 0.00 | 0.00 | 88 | 1015.2 |
| 20260503030703 | 15 | 260 | 0.0 | 0.0 | 0.00 | 0.00 | 0.00 | 87 | 1015.2 |
| 20260503030203 | 15 | 260 | 0.0 | 0.0 | 0.00 | 0.00 | 0.00 | 87 | 1015.3 |
| 20260503023703 | 15 | 260 | 0.0 | 3.2 | 0.00 | 0.00 | 0.00 | 86 | 1015.3 |
| 20260503023203 | 15 | 260 | 0.0 | 4.8 | 0.00 | 0.00 | 0.00 | 86 | 1015.3 |
| 20260503020702 | 15 | 260 | 0.0 | 0.0 | 0.00 | 0.00 | 0.00 | 85 | 1015.3 |
| 20260503020202 | 15 | 260 | 0.0 | 4.8 | 0.00 | 0.00 | 0.00 | 85 | 1015.5 |
| 20260503013702 | 15 | 260 | 0.0 | 0.0 | 0.00 | 0.00 | 0.00 | 85 | 1015.6 |
| 20260503013202 | 15 | 260 | 0.0 | 4.8 | 0.00 | 0.00 | 0.00 | 84 | 1015.7 |
| 20260503010704 | 15 | 260 | 0.0 | 4.8 | 0.00 | 0.00 | 0.00 | 83 | 1016.0 |
| 20260503010202 | 15 | 260 | 0.0 | 9.7 | 0.00 | 0.00 | 0.00 | 83 | 1016.1 |
| 20260503003703 | 15 | 260 | 0.0 | 4.8 | 0.00 | 0.00 | 0.00 | 82 | 1016.3 |
| 20260503003203 | 15 | 260 | 1.6 | 4.8 | 0.00 | 0.00 | 0.00 | 82 | 1016.4 |
| 20260503000702 | 16 | 260 | 0.0 | 3.2 | 0.00 | 0.00 | 0.00 | 82 | 1016.4 |
| 20260503000204 | 16 | 260 | 1.6 | 11.3 | 0.00 | 0.00 | 0.00 | 82 | 1016.5 |
| 20260502233703 | 16 | 264 | 3.2 | 11.3 | 0.00 | 0.00 | 0.00 | 81 | 1016.5 |
| 20260502233203 | 16 | 264 | 3.2 | 11.3 | 0.00 | 0.00 | 0.00 | 80 | 1016.6 |
| 20260502230703 | 16 | 267 | 0.0 | 0.0 | 0.00 | 0.00 | 0.00 | 79 | 1016.7 |
| 20260502230203 | 16 | 267 | 0.0 | 11.3 | 0.00 | 0.00 | 0.00 | 79 | 1016.7 |
| 20260502223703 | 16 | 244 | 3.2 | 4.8 | 0.00 | 0.00 | 0.00 | 76 | 1016.5 |
| 20260502223203 | 16 | 244 | 1.6 | 4.8 | 0.00 | 0.00 | 0.00 | 76 | 1016.5 |
| 20260502220702 | 16 | 244 | 0.0 | 0.0 | 0.00 | 0.00 | 0.00 | 78 | 1016.6 |
| 20260502220203 | 16 | 244 | 0.0 | 4.8 | 0.00 | 0.00 | 0.00 | 78 | 1016.5 |
| 20260502213702 | 17 | 244 | 0.0 | 4.8 | 0.00 | 0.00 | 0.00 | 77 | 1016.7 |
| 20260502213203 | 17 | 244 | 0.0 | 8.0 | 0.00 | 0.00 | 0.00 | 77 | 1016.7 |
| 20260502210702 | 17 | 252 | 3.2 | 8.0 | 0.00 | 0.00 | 0.00 | 76 | 1016.4 |
| 20260502203703 | 17 | 264 | 1.6 | 4.8 | 0.00 | 0.00 | 0.00 | 75 | 1016.2 |